Flag for Argentina Weather past 2 weeks in Río Grande, Tierra del Fuego, Argentina

Now
32 °F

Clear.


Feels Like: 23 °F
Forecast: 32 / 37 °F
Wind: 12 mph from West

Location: Rio Grande B. A.

Current Time: Jul 3, 2015 at 5:52:22 AM

Latest Report: Jul 3, 2015 at 5:00 AM


Visibility: 10 mi

Pressure: 29.74 "Hg

Humidity: 100%

Dew point: 32 °F

Location of Río GrandeLocation

Historic Weather in Río Grande — Graph

°F

Río Grande temperature yesterday

Maximum temperature yesterday: 41 °F (at 2:00 PM)
Minimum temperature yesterday: 32 °F (at 8:00 AM)
Average temperature yesterday: 36 °F

Past Weeks' High & Low Weather Summary

 TemperatureHumidityPressure
High46 °F (Jun 23, 3:00 PM)100% (Jun 18, 7:00 AM)29.92 "Hg (Jun 18, 7:00 AM)
Low25 °F (Jul 1, 10:00 AM)65% (Jun 29, 1:00 PM)28.03 "Hg (Jun 27, 11:00 PM)
Average36 °F90%29.41 "Hg
* Reported Jun 18 5:00 AM — Jul 3 4:00 AM, Río Grande, Weather by CustomWeather, © 2015

Note: Actual official high and low records may vary slightly from our data, if they occured in-between our weather recording intervals... More about our weather records

Advertising

Río Grande weather history for previous 24 hours

 ConditionsComfort  
Time TempWeatherWind HumidityBarometerVisibility
4:00 AM
Fri, Jul 3
34 °FClear.13 mph93%29.74 "Hg10 mi
3:00 AM34 °FClear.14 mph93%29.74 "Hg10 mi
2:00 AM34 °FClear.16 mph93%29.74 "Hg10 mi
12:00 AM34 °FClear.13 mph100%29.71 "Hg10 mi
11:00 PM
Thu, Jul 2
34 °FClear.14 mph100%29.71 "Hg10 mi
9:00 PM34 °FClear.14 mph100%29.68 "Hg10 mi
8:00 PM34 °FClear.13 mph100%29.68 "Hg10 mi
7:00 PM36 °FClear.12 mph93%29.65 "Hg10 mi
6:00 PM37 °FClear.14 mph93%29.65 "Hg10 mi
5:00 PM37 °FClear.16 mph87%29.65 "Hg10 mi
4:00 PM39 °FSunny.21 mph87%29.62 "Hg10 mi
3:00 PM41 °FSunny.25 mph81%29.62 "Hg10 mi
2:00 PM41 °FSunny.21 mph81%29.62 "Hg10 mi
1:00 PM39 °FSunny.14 mph93%29.65 "Hg10 mi
11:00 AM34 °FSunny.14 mph93%29.65 "Hg10 mi
10:00 AM36 °FSunny.20 mph93%29.68 "Hg10 mi
8:00 AM32 °FPassing clouds.15 mph93%29.71 "HgN/A
Weather by CustomWeather, © 2015

See weather overviewHow to use our weather pages